Regional Weather Roundup
Issued by NWS

Home | Current Version | Previous Version | Graphics & Text | Print | Product List | Glossary On
Versions: 1 2 3 4 5 6 7 8 9 10 11 12 13 14 15 16 17 18 19 20 21 22 23 24 25 26 27 28 29 30 31 32 33 34 35 36 37 38 39 40 41 42 43 44 45 46 47 48 49 50
832
ASUS43 KTOP 130108
RWRKS

WEATHER ROUNDUP FOR KANSAS
NATIONAL WEATHER SERVICE GOODLAND KS
700 PM CST FRI FEB 12 2016

NOTE:  "FAIR" INDICATES FEW OR NO CLOUDS BELOW 12,000 FEET WITH NO
SIGNIFICANT WEATHER AND/OR OBSTRUCTIONS TO VISIBILITY.

KSZ001>006-013>018-027>032-041>047-130200-
NORTHWEST KANSAS

CITY           SKY/WX    TMP DP  RH WIND       PRES   REMARKS
GOODLAND       CLOUDY    31  29  92 E15       30.36R WCI  20
HAYS           CLOUDY    34  19  55 E14       30.46R WCI  24
HILL CITY      CLOUDY    34  27  75 E9        30.45S
RUSSELL        CLOUDY    32  25  75 E13       30.48R WCI  22
$$

KSZ061>065-074>080-084>089-130200-
SOUTHWEST KANSAS

CITY           SKY/WX    TMP DP  RH WIND       PRES   REMARKS
DODGE CITY     CLOUDY    33  26  75 E6        30.42R
ELKHART          N/A     46  26  45 SE12        N/A
GARDEN CITY    CLEAR     34  28  79 E14       30.37S WCI  25
GREAT BEND     CLOUDY    36  21  55 E15       30.47R WCI  26
LIBERAL        CLEAR     45  27  49 E15       30.36R
PRATT          CLOUDY    32  23  70 NE9       30.45R
$$

KSZ066>073-081>083-090>101-130200-
SOUTHEAST KANSAS

CITY           SKY/WX    TMP DP  RH WIND       PRES   REMARKS
CHANUTE        CLOUDY    37  19  48 N10       30.49R WCI  30
COFFEYVILLE    CLOUDY    41  25  53 N15       30.47R
HUTCHINSON     CLOUDY    35  23  61 NE8       30.49R
MEDICINE LODGE   N/A     37  27  67 NE13      30.44R WCI  29
NEWTON         CLOUDY    34  19  55 NE12      30.50R WCI  25
PARSONS        CLOUDY    39  24  55 N7        30.48R
WICHITA INTL   CLOUDY    38  24  57 NE14      30.48R WCI  30
WICHITA JABRA  CLOUDY    35  23  61 N12       30.49R WCI  27
WICHITA MCCONL CLOUDY    36  25  62 NE15      30.48R WCI  27
WINFIELD       CLEAR     39  25  57 N9        30.47R
$$

KSZ007>012-019>026-033>040-048>060-102>105-130200-
NORTHEAST KANSAS

CITY           SKY/WX    TMP DP  RH WIND       PRES   REMARKS
CONCORDIA      CLOUDY    27  15  61 NE13      30.53R WCI  16
EMPORIA        CLOUDY    33  16  49 N12       30.49R WCI  24
LAWRENCE       CLEAR     27   9  46 N12       30.55R WCI  17
MANHATTAN      MOCLDY    30  15  53 N8        30.53R
MARYSVILLE     PTCLDY    23  14  68 N9        30.55R
OLATHE IND     CLEAR     27  11  51 N10       30.52R WCI  17
OLATHE EXE     CLEAR     28  10  46 N15       30.50R WCI  16
SALINA         CLOUDY    33  21  61 NE10      30.52S WCI  25
TOPEKA BILLARD CLEAR     28   9  44 NE12      30.54R WCI  18
TOPEKA FORBES  CLEAR     30  12  47 NE8       30.52R
$$




USA.gov is the U.S. government's official web portal to all federal, state and local government web resources and services.